[[{"header":{"parameterUnit":"m.s-1","parameterCategory":1,"la1":30.2991,"la2":30.254,"lo1":-89.0895,"lo2":-89.0444,"dy":0.0017,"dx":0.0017,"nx":28,"ny":28,"refTime":"2024-10-05T09:00:00:Z","depth":0,"parameterNumber":2,"parameterNumberName":"U-component_of_WINDS"},"data":[0,0,0,0,0,0,0,0,0,0,0,0,0,0,0,0,0,0,0,0,0,0,0,0,0,0,0,0,0,0,0,0,0,0,0,0,0,0,0,0,0,0,0,0,0,0,0,0,0,0,0,0,0,0,0,0,0,0,-3.9218,-3.9219,0,-3.9298,-3.9299,-3.93,-3.9198,-3.9194,-3.919,-3.9187,-3.9271,-3.9276,-3.9282,0,0,0,0,0,0,0,0,0,0,0,0,0,-3.8979,-3.8984,-3.9218,-3.9219,-3.922,-3.9298,-3.9299,-3.93,-3.9198,-3.9194,-3.9189,-3.9185,-3.9269,-3.9275,-3.9282,0,0,0,0,0,0,0,0,0,0,0,0,0,-3.9073,-3.8985,-3.9218,-3.9179,-3.9176,-3.9298,-3.9299,-3.93,-3.9199,-3.9194,-3.9188,-3.9183,-3.9266,-3.9275,-3.9283,-3.9448,0,0,-3.9309,-3.9313,0,0,0,0,0,0,0,0,-3.9068,-3.9082,-3.9183,-3.9182,-3.9179,-3.9232,-3.9245,-3.935,-3.9201,-3.9191,-3.9187,-3.918,-3.9262,-3.9271,-3.9298,-3.9452,-3.9455,-3.931,-3.9315,-3.9319,-3.9321,0,0,0,0,0,0,0,-3.9062,-3.9078,-3.925,-3.9185,-3.9182,-3.9157,-3.9165,-3.9265,-3.9257,-3.9191,-3.9184,-3.9194,-3.926,-3.929,-3.93,-3.9457,-3.931,-3.9317,-3.9323,-3.9326,-3.975,-3.9756,0,0,0,0,0,0,-3.9059,-3.9073,-3.9247,-3.9252,-3.9108,-3.9166,-3.9174,-3.9221,-3.9256,-3.9255,-3.9199,-3.9189,-3.9278,-3.929,-3.9302,-3.9498,-3.9319,-3.9327,-3.9332,-3.9744,-3.9751,-3.9758,0,0,0,0,0,0,-3.9055,-3.9076,-3.9244,-3.9161,-3.918,-3.9176,-3.9229,-3.9225,-3.9255,-3.9262,-3.926,-3.9232,-3.9274,-3.929,-3.9412,-3.95,-3.9331,-3.9339,-3.9737,-3.9746,-3.9755,-3.9891,0,0,0,0,0,0,-3.9048,-3.9075,-3.9137,-3.9163,-3.9185,-3.9353,-3.9235,-3.9231,-3.927,-3.9258,-3.9292,-3.9292,-3.9271,-3.94,-3.9421,-3.9508,-3.9345,-3.9729,-3.9741,-3.9752,-3.9879,-3.9904,-3.9925,0,0,0,0,0,-3.904,-3.9173,-3.9141,-3.9162,-3.9263,-3.9358,-3.9371,-3.9344,-3.9278,-3.9341,-3.9344,-3.9291,-3.9486,-3.9414,-3.9436,-3.9527,-3.9723,-3.9737,-3.9751,-3.9869,-3.9899,-3.9925,0,0,0,0,0,0,-3.9158,-3.9176,-3.914,-3.9285,-3.9321,-3.9341,-3.942,-3.9377,-3.9433,-3.942,-3.9385,-3.9393,-3.9524,-3.9537,-3.9456,-3.9689,-3.9594,-3.9613,-3.9676,-3.9705,-3.9727,-3.9723,-3.9352,0,0,0,0,0,-3.9201,-3.9277,-3.9287,-3.9415,-3.9434,-3.9424,-3.9465,-3.9441,-3.9477,-3.9492,-3.9504,-3.9542,-3.9611,-3.9658,-3.9723,-3.988,-3.9886,-3.9953,-3.9977,-3.9996,-4.0013,-4.0098,-4.0128,-3.9803,-3.9803,-3.9803,0,0,-3.9291,-3.9309,-3.9359,-3.9439,-3.9464,-3.9543,-3.9438,-3.9526,-3.9585,-3.9505,-3.9622,-3.9633,-3.9672,-3.9812,-3.9875,-3.9828,-4.0104,-4.0013,-4.0028,-4.0036,-4.0115,-4.0146,-4.0174,-3.9813,-3.9811,-3.9809,0,0,-3.9495,-3.9516,-3.9625,-3.9652,-3.969,-3.9682,-3.9709,-3.9735,-3.9739,-3.9855,-3.9797,-3.9866,-3.9987,-4.0018,-4.0049,-4.0264,-4.0217,-4.0286,-4.0408,-4.0491,-4.0517,-4.0539,-4.0618,-4.0646,-4.0303,-4.0303,-4.0303,0,-3.9602,-3.9719,-3.9686,-3.9779,-3.9816,-3.9746,-3.9856,-3.9883,-3.9942,-3.9969,-3.9915,-4.0065,-4.0087,-4.0234,-4.0286,-4.0314,-4.0343,-4.0283,-4.0516,-4.0538,-4.0559,-4.0633,-4.0662,-4.0311,-4.0311,-4.031,-4.0309,0,-3.9849,-3.9931,-4.0014,-4.0072,-4.0118,-4.0219,-4.0202,-4.0252,-4.0224,-4.0222,-4.0342,-4.0365,-4.0433,-4.0465,-4.0439,-4.061,-4.0579,-4.0521,-4.0425,-4.0598,-4.0668,-4.0696,-4.0323,-4.032,-4.0318,-4.0316,0,0,-4.0133,-4.0169,-4.0201,-4.0226,-4.0263,-4.0327,-4.0424,-4.049,-4.0535,-4.0577,-4.0659,-4.0762,-4.0709,-4.0744,-4.072,-4.0793,-4.0964,-4.0726,-4.0726,-4.0771,-4.1154,-4.12,-4.1233,-4.0932,-4.0937,-4.0941,-4.1152,0,-4.0338,-4.0507,-4.048,-4.0644,-4.072,-4.0654,-4.0739,-4.0772,-4.0772,-4.0837,-4.0837,-4.0912,-4.0834,-4.0856,-4.0924,-4.0929,-4.1041,-4.0913,-4.1009,-4.1013,-4.1004,-4.1269,-4.1317,-4.1515,-4.1178,-4.1183,-4.1186,0,-4.0601,-4.0653,-4.0825,-4.085,-4.0881,-4.0958,-4.1016,-4.1079,-4.1114,-4.1109,-4.1149,-4.1111,-4.121,-4.1111,-4.1246,-4.116,-4.1197,-4.1205,-4.1212,-4.1222,-4.1112,-4.1288,-4.1577,-4.1608,-4.1228,-4.1225,-4.1222,0,-4.0793,-4.0905,-4.1022,-4.1046,-4.1078,-4.1134,-4.115,-4.1179,-4.1221,-4.1271,-4.1298,-4.136,-4.1395,-4.1444,-4.1424,-4.1353,-4.1564,-4.1463,-4.1564,-4.1565,-4.1613,-4.1611,-4.1915,-4.1634,-4.1634,-4.1633,-4.1633,0,-4.1027,-4.1135,-4.1109,-4.1182,-4.1301,-4.1268,-4.1387,-4.1394,-4.1421,-4.1495,-4.144,-4.151,-4.1479,-4.1547,-4.1532,-4.1648,-4.1663,-4.1663,-4.1658,-4.1669,-4.167,-4.1695,-4.1681,-4.1641,-4.164,-4.1638,-4.1637,0,-4.1262,-4.1249,-4.1373,-4.1392,-4.14,-4.1487,-4.1504,-4.1572,-4.1567,-4.1661,-4.1681,-4.1675,-4.1752,-4.1736,-4.1821,-4.1811,-4.1956,-4.1933,-4.1945,-4.194,-4.2043,-4.2034,-4.2376,-4.2419,-4.2109,-4.2112,-4.2114,0,-4.1414,-4.1495,-4.1523,-4.1568,-4.1588,-4.1661,-4.1703,-4.1673,-4.1719,-4.1765,-4.1828,-4.19,-4.1957,-4.2083,-4.2087,-4.2152,-4.2131,-4.2246,-4.2141,-4.2149,-4.2135,-4.2132,-4.214,-4.2268,-4.2272,-4.2274,-4.2277,0,-4.1684,-4.1673,-4.1735,-4.1796,-4.1847,-4.1893,-4.1934,-4.1974,-4.1948,-4.2002,-4.208,-4.2124,-4.221,-4.2283,-4.2343,-4.236,-4.2316,-4.2309,-4.2337,-4.235,-4.2354,-4.2355,-4.2004,-4.2302,-4.23,-4.2298,-4.2297,-4.2296,-4.1884,-4.1953,-4.1984,-4.2055,-4.2082,-4.2122,-4.2187,-4.219,-4.2255,-4.2323,-4.2301,-4.239,-4.2423,-4.2499,-4.2522,-4.2592,-4.2549,-4.2588,-4.2599,-4.2609,-4.2623,-4.2341,-4.2603,-4.2602,-4.2601,-4.26,-4.26,0,-4.2153,-4.2169,-4.2235,-4.2294,-4.235,-4.23,-4.2343,-4.2394,-4.2473,-4.2507,-4.2563,-4.2653,-4.2723,-4.2731,-4.2798,-4.2852,-4.2833,-4.2871,-4.2868,-4.2873,-4.2656,-4.2627,-4.2885,-4.2885,-4.2885,-4.2885,-4.2885,-4.2885,-4.23,-4.2416,-4.2408,-4.2537,-4.2552,-4.2639,-4.2668,-4.2704,-4.2731,-4.2834,-4.2891,-4.2896,-4.292,-4.2987,-4.305,-4.305,-4.3078,-4.3124,-4.3118,-4.2916,-4.2888,-4.2861,-4.2833,-4.313,-4.3131,-4.3328,-4.333,-4.3331]},{"header":{"parameterUnit":"m.s-1","parameterCategory":1,"la1":30.2991,"la2":30.254,"lo1":-89.0895,"lo2":-89.0444,"dy":0.0017,"dx":0.0017,"nx":28,"ny":28,"refTime":"2024-10-05T09:00:00:Z","depth":0,"parameterNumber":3,"parameterNumberName":"V-component_of_WINDS"},"data":[0,0,0,0,0,0,0,0,0,0,0,0,0,0,0,0,0,0,0,0,0,0,0,0,0,0,0,0,0,0,0,0,0,0,0,0,0,0,0,0,0,0,0,0,0,0,0,0,0,0,0,0,0,0,0,0,0,0,-4.6933,-4.6933,0,-4.6947,-4.6947,-4.6947,-4.6875,-4.6873,-4.6871,-4.6869,-4.6882,-4.6885,-4.6887,0,0,0,0,0,0,0,0,0,0,0,0,0,-4.6841,-4.6843,-4.6933,-4.6933,-4.6933,-4.6947,-4.6947,-4.6947,-4.6876,-4.6873,-4.6871,-4.6868,-4.6882,-4.6884,-4.6887,0,0,0,0,0,0,0,0,0,0,0,0,0,-4.6871,-4.6844,-4.6933,-4.6899,-4.6896,-4.6947,-4.6947,-4.6947,-4.6876,-4.6873,-4.687,-4.6867,-4.6881,-4.6884,-4.6887,-4.6971,0,0,-4.6898,-4.6899,0,0,0,0,0,0,0,0,-4.6869,-4.6874,-4.6904,-4.6901,-4.6898,-4.6906,-4.692,-4.6955,-4.6877,-4.6884,-4.6869,-4.6865,-4.6893,-4.6895,-4.6904,-4.6971,-4.6972,-4.6898,-4.69,-4.6902,-4.6903,0,0,0,0,0,0,0,-4.6867,-4.6873,-4.6938,-4.6904,-4.6901,-4.6882,-4.6883,-4.6926,-4.6905,-4.6883,-4.6878,-4.688,-4.6891,-4.6901,-4.6904,-4.6972,-4.6898,-4.6901,-4.6903,-4.6905,-4.7106,-4.711,0,0,0,0,0,0,-4.687,-4.6872,-4.6938,-4.6939,-4.6876,-4.6887,-4.6887,-4.6907,-4.6905,-4.6901,-4.6883,-4.6877,-4.6897,-4.69,-4.6904,-4.7001,-4.6902,-4.6905,-4.6907,-4.7103,-4.7107,-4.7111,0,0,0,0,0,0,-4.6868,-4.6877,-4.6937,-4.6904,-4.691,-4.6891,-4.6914,-4.6909,-4.6919,-4.6905,-4.6901,-4.6898,-4.6895,-4.6899,-4.6954,-4.7,-4.6906,-4.691,-4.7099,-4.7104,-4.7109,-4.7195,0,0,0,0,0,0,-4.6866,-4.6876,-4.6909,-4.6905,-4.6912,-4.6988,-4.6917,-4.6911,-4.6925,-4.6918,-4.6918,-4.6915,-4.6893,-4.695,-4.6958,-4.7003,-4.6912,-4.7095,-4.7102,-4.7107,-4.7188,-4.7202,-4.7214,0,0,0,0,0,-4.6863,-4.6932,-4.6911,-4.6919,-4.6952,-4.6991,-4.6995,-4.6968,-4.693,-4.6961,-4.6952,-4.6915,-4.6994,-4.6956,-4.6965,-4.7012,-4.7092,-4.71,-4.7107,-4.7182,-4.7199,-4.7214,0,0,0,0,0,0,-4.6941,-4.6931,-4.6907,-4.6977,-4.6986,-4.6979,-4.7018,-4.6988,-4.7007,-4.6999,-4.6965,-4.6965,-4.7026,-4.7024,-4.6982,-4.7091,-4.7036,-4.7046,-4.709,-4.7107,-4.712,-4.7119,-4.6915,0,0,0,0,0,-4.6967,-4.7,-4.6989,-4.7052,-4.7057,-4.7037,-4.7053,-4.7032,-4.7039,-4.7042,-4.7036,-4.7044,-4.707,-4.7088,-4.7112,-4.7187,-4.7186,-4.7224,-4.7237,-4.7248,-4.7256,-4.7295,-4.7311,-4.7135,-4.7135,-4.7135,0,0,-4.702,-4.7018,-4.7041,-4.7068,-4.7071,-4.7105,-4.704,-4.7079,-4.7104,-4.7047,-4.7099,-4.7095,-4.7101,-4.7167,-4.7195,-4.7167,-4.7305,-4.7257,-4.7266,-4.7269,-4.7304,-4.7321,-4.7336,-4.714,-4.7139,-4.7139,0,0,-4.7133,-4.7136,-4.7188,-4.7193,-4.72,-4.7186,-4.7198,-4.7196,-4.7191,-4.7242,-4.72,-4.7229,-4.7275,-4.7281,-4.729,-4.7405,-4.7371,-4.7413,-4.7482,-4.752,-4.7534,-4.7546,-4.7586,-4.7601,-4.7422,-4.7422,-4.7422,0,-4.7198,-4.7248,-4.7219,-4.726,-4.7272,-4.7223,-4.7275,-4.7281,-4.7295,-4.7304,-4.7273,-4.7329,-4.733,-4.7396,-4.7423,-4.7433,-4.7445,-4.7413,-4.7535,-4.7547,-4.7557,-4.7595,-4.761,-4.7427,-4.7427,-4.7426,-4.7426,0,-4.7327,-4.7362,-4.7403,-4.7418,-4.7435,-4.7482,-4.7458,-4.7479,-4.7456,-4.7445,-4.7497,-4.7496,-4.7518,-4.7532,-4.751,-4.7594,-4.7577,-4.7541,-4.7484,-4.758,-4.7614,-4.7629,-4.7434,-4.7433,-4.7431,-4.743,0,0,-4.7491,-4.7488,-4.7503,-4.7509,-4.7512,-4.7538,-4.7582,-4.7603,-4.7621,-4.7632,-4.7668,-4.7708,-4.7674,-4.7684,-4.7663,-4.7696,-4.7786,-4.7656,-4.7655,-4.7679,-4.7877,-4.7903,-4.7921,-4.7764,-4.7766,-4.7768,-4.7876,0,-4.7601,-4.7676,-4.765,-4.7726,-4.7758,-4.771,-4.7748,-4.7754,-4.7745,-4.7769,-4.7759,-4.7788,-4.7742,-4.7747,-4.7778,-4.7768,-4.7825,-4.776,-4.7795,-4.7797,-4.7795,-4.7939,-4.7967,-4.8069,-4.789,-4.7892,-4.7893,0,-4.774,-4.7756,-4.7836,-4.7832,-4.7844,-4.7879,-4.7896,-4.7921,-4.7925,-4.7916,-4.7928,-4.7898,-4.794,-4.7884,-4.7941,-4.7898,-4.791,-4.7908,-4.7911,-4.7912,-4.7851,-4.7944,-4.8101,-4.8116,-4.7915,-4.7913,-4.7912,0,-4.785,-4.7892,-4.7944,-4.7951,-4.7948,-4.7973,-4.7974,-4.7975,-4.799,-4.8004,-4.8013,-4.8033,-4.8043,-4.8059,-4.8036,-4.7997,-4.8095,-4.8038,-4.8088,-4.8089,-4.811,-4.8109,-4.8271,-4.812,-4.812,-4.812,-4.8119,0,-4.7976,-4.8026,-4.7994,-4.8026,-4.808,-4.805,-4.8104,-4.8099,-4.8101,-4.813,-4.8091,-4.812,-4.8087,-4.8113,-4.8095,-4.8143,-4.8149,-4.8142,-4.8136,-4.8145,-4.8146,-4.8153,-4.8145,-4.8124,-4.8123,-4.8122,-4.8121,0,-4.8108,-4.8089,-4.8143,-4.8136,-4.8135,-4.8175,-4.8169,-4.8198,-4.8185,-4.8223,-4.8231,-4.8211,-4.8239,-4.8217,-4.8245,-4.8232,-4.8297,-4.8282,-4.8295,-4.8291,-4.8342,-4.8337,-4.8513,-4.8534,-4.8371,-4.8372,-4.8374,0,-4.8189,-4.8227,-4.8223,-4.824,-4.8243,-4.8271,-4.8285,-4.8256,-4.8273,-4.828,-4.8308,-4.8333,-4.8351,-4.8397,-4.8385,-4.8406,-4.839,-4.845,-4.8393,-4.84,-4.839,-4.8388,-4.8391,-4.8462,-4.8464,-4.8465,-4.8467,0,-4.8335,-4.8323,-4.8345,-4.8364,-4.8382,-4.8395,-4.8405,-4.8422,-4.8392,-4.8412,-4.844,-4.8454,-4.8481,-4.8506,-4.8522,-4.8521,-4.8489,-4.8485,-4.8497,-4.8506,-4.8512,-4.8509,-4.8326,-4.8481,-4.8479,-4.8478,-4.8478,-4.8477,-4.8444,-4.8474,-4.8476,-4.8502,-4.8506,-4.8516,-4.8543,-4.8533,-4.8556,-4.8576,-4.8558,-4.8591,-4.8594,-4.8612,-4.8615,-4.864,-4.8615,-4.8634,-4.8638,-4.8643,-4.865,-4.8509,-4.8643,-4.8643,-4.8643,-4.8642,-4.8642,0,-4.8586,-4.8585,-4.8609,-4.8624,-4.8644,-4.8612,-4.8621,-4.864,-4.8669,-4.8675,-4.8693,-4.8725,-4.8748,-4.8738,-4.8758,-4.878,-4.8765,-4.8786,-4.8784,-4.8784,-4.8672,-4.8659,-4.8797,-4.8797,-4.8797,-4.8797,-4.8797,-4.8797,-4.8663,-4.8712,-4.8701,-4.8752,-4.875,-4.8782,-4.879,-4.8799,-4.8803,-4.8839,-4.8858,-4.8852,-4.885,-4.887,-4.889,-4.8886,-4.8895,-4.8921,-4.8912,-4.8807,-4.8792,-4.8777,-4.8764,-4.8923,-4.8923,-4.9021,-4.9022,-4.9023]}]]